| time (UTC) | temp F | wind direction | speed knots | gust knots | rain 1hr in | rain 24hr in | rain mn in | humidity % | barometer mb |
| 20260505024544 | 50 | 1 | 4.3 | 8.7 | 0.00 | 0.00 | 0.00 | 71 | 1011.5 |
| 20260505023045 | 51 | 1 | 6.1 | 9.6 | 0.00 | 0.00 | 0.00 | 71 | 1011.6 |
| 20260505021537 | 51 | 1 | 5.2 | 7.8 | 0.00 | 0.00 | 0.00 | 70 | 1011.3 |
| 20260505020041 | 52 | 1 | 6.1 | 9.6 | 0.00 | 0.00 | 0.00 | 66 | 1011.3 |
| 20260505014544 | 53 | 1 | 3.5 | 8.7 | 0.00 | 0.00 | 0.00 | 64 | 1010.9 |
| 20260505013043 | 53 | 1 | 3.5 | 10.4 | 0.00 | 0.00 | 0.00 | 63 | 1011.2 |
| 20260505011550 | 53 | 1 | 10.4 | 15.6 | 0.00 | 0.00 | 0.00 | 61 | 1011.2 |
| 20260505010048 | 55 | 1 | 11.3 | 16.5 | 0.00 | 0.00 | 0.00 | 55 | 1010.7 |
| 20260505004536 | 57 | 1 | 7.0 | 15.6 | 0.00 | 0.00 | 0.00 | 46 | 1010.4 |
| 20260505003041 | 59 | 360 | 9.6 | 18.2 | 0.00 | 0.00 | 0.00 | 38 | 1010.1 |
| 20260505001542 | 60 | 1 | 12.2 | 17.4 | 0.00 | 0.00 | 0.00 | 37 | 1009.8 |
| 20260505000040 | 61 | 1 | 15.6 | 20.0 | 0.00 | 0.00 | 0.00 | 37 | 1009.8 |
| 20260504234538 | 62 | 1 | 10.4 | 20.0 | 0.00 | 0.00 | 0.00 | 34 | 1009.8 |
| 20260504233044 | 62 | 1 | 13.9 | 19.1 | 0.00 | 0.00 | 0.00 | 34 | 1009.7 |
| 20260504231543 | 63 | 1 | 14.8 | 20.0 | 0.00 | 0.00 | 0.00 | 33 | 1009.6 |
| 20260504230041 | 64 | 360 | 13.0 | 18.2 | 0.00 | 0.00 | 0.00 | 32 | 1009.4 |
| 20260504224541 | 63 | 1 | 14.8 | 24.3 | 0.00 | 0.00 | 0.00 | 33 | 1009.2 |
| 20260504223048 | 63 | 1 | 19.1 | 26.1 | 0.00 | 0.00 | 0.00 | 33 | 1009.0 |
| 20260504221544 | 64 | 360 | 19.1 | 26.9 | 0.00 | 0.00 | 0.00 | 31 | 1008.7 |
| 20260504220107 | 66 | 1 | 13.9 | 22.6 | 0.00 | 0.00 | 0.00 | 27 | 1008.4 |
| 20260504214551 | 67 | 1 | 16.5 | 24.3 | 0.00 | 0.00 | 0.00 | 25 | 1008.3 |
| 20260504213054 | 69 | 1 | 9.6 | 14.8 | 0.00 | 0.00 | 0.00 | 22 | 1008.8 |
| 20260504211544 | 67 | 1 | 13.0 | 18.2 | 0.00 | 0.00 | 0.00 | 23 | 1008.9 |
| 20260504210047 | 68 | 1 | 13.0 | 18.2 | 0.00 | 0.00 | 0.00 | 22 | 1008.9 |
| 20260504204543 | 70 | 1 | 10.4 | 15.6 | 0.00 | 0.00 | 0.00 | 19 | 1008.9 |
| 20260504203041 | 71 | 1 | 6.1 | 17.4 | 0.00 | 0.00 | 0.00 | 19 | 1008.9 |
| 20260504201541 | 70 | 1 | 7.8 | 18.2 | 0.00 | 0.00 | 0.00 | 19 | 1009.0 |
| 20260504200054 | 68 | 1 | 7.8 | 15.6 | 0.00 | 0.00 | 0.00 | 19 | 1009.0 |
| 20260504194546 | 70 | 1 | 8.7 | 16.5 | 0.00 | 0.00 | 0.00 | 19 | 1009.1 |
| 20260504193045 | 70 | 1 | 7.8 | 13.9 | 0.00 | 0.00 | 0.00 | 19 | 1008.9 |
| 20260504191553 | 69 | 1 | 7.0 | 13.0 | 0.00 | 0.00 | 0.00 | 20 | 1008.9 |
| 20260504190050 | 70 | 1 | 5.2 | 10.4 | 0.00 | 0.00 | 0.00 | 21 | 1009.0 |
| 20260504184552 | 70 | 1 | 8.7 | 14.8 | 0.00 | 0.00 | 0.00 | 19 | 1009.1 |
| 20260504183050 | 71 | 1 | 7.8 | 15.6 | 0.00 | 0.00 | 0.00 | 20 | 1009.0 |
| 20260504181550 | 71 | 1 | 5.2 | 13.0 | 0.00 | 0.00 | 0.00 | 18 | 1009.2 |
| 20260504180044 | 72 | 1 | 2.6 | 13.9 | 0.00 | 0.00 | 0.00 | 20 | 1009.5 |
| 20260504174548 | 71 | 1 | 5.2 | 17.4 | 0.00 | 0.00 | 0.00 | 19 | 1009.9 |
| 20260504173043 | 69 | 1 | 7.8 | 14.8 | 0.00 | 0.00 | 0.00 | 21 | 1010.0 |
| 20260504171542 | 71 | 1 | 9.6 | 16.5 | 0.00 | 0.00 | 0.00 | 21 | 1010.2 |
| 20260504081547 | 50 | 1 | 6.1 | 9.6 | 0.00 | 0.00 | 0.00 | 44 | 1011.9 |
| 20260504044553 | 61 | 1 | 4.3 | 7.8 | 0.00 | 0.00 | 0.00 | 26 | 1012.3 |
| 20260504043046 | 61 | 1 | 6.1 | 9.6 | 0.00 | 0.00 | 0.00 | 25 | 1012.4 |
| 20260504041547 | 62 | 1 | 5.2 | 9.6 | 0.00 | 0.00 | 0.00 | 25 | 1012.5 |
| 20260504034556 | 62 | 1 | 6.1 | 10.4 | 0.00 | 0.00 | 0.00 | 26 | 1012.7 |
| 20260504033110 | 62 | 1 | 2.6 | 7.0 | 0.00 | 0.00 | 0.00 | 26 | 1012.9 |
| 20260504031541 | 63 | 1 | 2.6 | 12.2 | 0.00 | 0.00 | 0.00 | 25 | 1013.1 |
| 20260504030048 | 63 | 1 | 7.0 | 14.8 | 0.00 | 0.00 | 0.00 | 24 | 1013.1 |